Location: Brantley
(31.5822°N, 86.2569°W)
Time: 06:51:46
(UTC+00:00)

Tiros 1 - Visible Passes

Search period start: 18 February 2026 00:00
Search period end: 28 February 2026 00:00
Orbit: 618 x 649 km, 48.4° (Epoch: 17 February)

Date Brightness Start Highest point End Pass type
(mag) Time Alt. Az. Time Alt. Az. Time Alt. Az.
18 Feb 10.3 11:31:27 10° SE 11:32:39 11° SE 11:33:50 10° ESE visible
19 Feb 9.3 11:50:02 10° S 11:53:58 27° SE 11:57:52 10° ENE visible
21 Feb 9.5 10:51:59 10° S 10:55:29 21° SE 10:58:58 10° E visible
22 Feb 7.9 11:12:24 10° SSW 11:16:55 51° SE 11:21:24 10° ENE visible
23 Feb 9.5 09:55:48 15° SSE 09:57:01 16° SE 09:59:53 10° E visible
23 Feb 7.1 11:33:52 10° WSW 11:38:30 68° NW 11:43:06 10° NE visible
24 Feb 8.2 10:17:27 35° SSE 10:18:23 39° SE 10:22:42 10° ENE visible
25 Feb 7.0 10:38:53 54° SW 10:39:55 87° NW 10:44:34 10° NE visible
26 Feb 9.8 09:22:41 17° E 09:22:41 17° E 09:23:55 10° ENE visible
26 Feb 7.7 11:00:06 31° WNW 11:01:39 40° NW 11:06:01 10° NE visible
27 Feb 9.0 09:43:46 28° ENE 09:43:46 28° ENE 09:45:59 10° NE visible
27 Feb 8.6 11:21:11 15° WNW 11:23:35 22° NNW 11:27:13 10° NNE visible
